STARLINK-32086, 59703

Orbit data source: Space-Track

STARLINK-32086, 59703 is a payload satellite owned by SpaceX/Seattle (US) in LEO that was launched on Wed, 08 May 2024 UTC via an FALCON 9 launch vehicle from the Air Force Eastern Test Range (AFETR). Payload-class satellites include a variety of spacecraft equipped with specific instruments for various scientific and technological missions. These include communications satellites like Starlink; space stations such as the ISS; scientific satellites like the Hubble; Earth observation satellites from companies like Planet Labs, Umbra, and HawkEye 360; GPS; miniature CubeSats for education and research; and military/defense satellites.

Loading next visibility...
Identifier
59703, 2024-086X
Orbit
LEO
Country
Flag of USUS
Related business
Manufacturer
SpaceX/Seattle
Mission
Operational Commercial Communications
Bus & Motor
STARLINK V2M, Unknown motor
Mass
730 kg wet, ~700 kg dry
Launch date (UTC)
2024-05-08 (2 years ago)
Launch vehicle
FALCON 9
Launch site
Air Force Eastern Test Range (AFETR)
Object type
Payload
Rocket body
Debris
Shape & HBR
Box + 2 Pan, 17.7 m
Radar Cross Section
33.884 m², Large (>1 m²)

Expand to show TLE details & history
Last TLE update: 2 days ago

TLE from 2 days ago
0 STARLINK-32086
1 59703U 24086X   26171.13572652  .00000395  00000-0  23885-4 0  9999
2 59703  43.0037 201.0206 0001656 281.3900  78.6766 15.27577884119785
Epoch: 2026-06-20T03:15Z
TLE epoch observation values (Epoch: 2026-06-20T03:15:26.771Z)
Latitude
0.00001°
Longitude
-116.19562°
Altitude
482.608 km
Speed
7.626 km/s
True Right ascension
13h 24m 04s
True Declination
0° 00' 00"
Sunlit
Object was in daylight at epoch
Visualization orbit readout
Latitude
Unknown
Longitude
Unknown
Altitude
Unknown
Speed
Unknown
Apparent Right ascension
Unknown
Apparent Declination
Unknown
Sunlit
N/A
Visualization observer readout
Local Sidereal Time
21:29:02
Azimuth
Unknown
Elevation
Unknown
Doppler factor
Unknown
Orbital elements
Apogee altitude
486.137 km
Perigee altitude
483.863 km
Semi-major axis
6,863.137 km
Eccentricity
0.00017
Inclination
43.0037°
RAAN
201.0206°
Arg. of periapsis
281.39°
True anomaly
78.69521°
Mean anomaly
78.6766°
Eccentric anomaly
78.6859°
Mean motion
3.81733 °/min
Orbital period
94.31 mins
BSTAR
0.000023885
Loading maneuver chart data...
Computing Atmospheric mass density...
Loading historical data...
Loading historical data...
Loading historical data...
Loading historical data...
Loading historical data...
Loading historical data...
Loading historical data...

Documentation

Showing up to 5 results
|